This demonstration page uses our WeatherBlox Daily Observations layout. Learn more.

Left ArrowRight Arrow

36.17497, -115.13722

Hourly Observations for September 22, 2016

Temp ( °F °C ) Dew Point ( °F °C ) Humidity (%) Winds ( mph kmh ) Pressure ( in mb ) Visibility ( mi km ) Precip ( " mm )
12:53 am 00:53 Clear 67 19.4 64 17.8 91 91 E 7 11 29.8 1009 10 16.0934 0 0
1:53 am 01:53 Clear 73 22.8 64 17.8 74 74 NNE 3 6 29.78 1009 10 16.0934 0 0
2:53 am 02:53 Clear 72 22 63 17 73 73 ENE 5 7 29.68 1005 10 16.0934 0 0
3:53 am 03:53 Clear 70 21.1 63 17.2 79 79 ENE 6 9 29.75 1008 10 16.0934 0 0
4:53 am 04:53 Clear 70 21.1 63 17.2 79 79 SSE 6 9 29.74 1007 10 16.0934 0 0
5:53 am 05:53 Clear 71 21.7 62 16.7 73 73 VRB 3 6 29.74 1007 10 16.0934 0 0
6:53 am 06:53 Sunny 74 23.3 51 10.6 45 45 SW 12 19 29.74 1007 10 16.0934 0 0
7:53 am 07:53 Sunny 76 24.4 50 10 40 40 S 14 22 29.73 1007 10 16.0934 0 0
8:53 am 08:53 Sunny 79 26.1 46 7.8 31 31 SW 18 30 29.72 1006 10 16.0934 0 0
9:53 am 09:53 Sunny 82 27.8 45 7.2 27 27 WSW 16 26 29.72 1006 10 16.0934 0 0
10:53 am 10:53 Sunny 85 29.4 41 5 21 21 WSW 22 35 29.7 1006 10 16.0934 0 0
11:53 am 11:53 Sunny 85 29.4 35 1.7 17 17 SW 29 46 29.68 1005 10 16.0934 0 0
12:53 pm 12:53 Sunny 85 29.4 39 3.9 20 20 WSW 18 30 29.67 1005 10 16.0934 0 0
1:53 pm 13:53 Sunny 85 29.4 15 -9.4 7 7 SW 24 39 29.64 1004 10 16.0934 0 0
2:53 pm 14:53 Sunny 84 28.9 2 -16.7 4 4 SW 22 35 29.63 1004 10 16.0934 0 0
3:53 pm 15:53 Sunny 82 27.8 2 -16.7 4 4 WSW 21 33 29.63 1003 10 16.0934 0 0
4:53 pm 16:53 Sunny 80 26.7 4 -15.6 5 5 W 31 50 29.64 1004 10 16.0934 0 0
5:53 pm 17:53 Sunny 77 25 3 -16.1 5 5 WSW 23 37 29.65 1004 10 16.0934 0 0
6:53 pm 18:53 Clear 76 24.4 3 -16.1 6 6 W 15 24 29.65 1004 10 16.0934 0 0
7:42 pm 19:42 Clear 75 24 5 -15 6 6 WNW 14 22 29.59 1002 10 16.0934 0 0
7:53 pm 19:53 Clear 75 23.9 4 -15.6 6 6 NW 18 30 29.67 1005 10 16.0934 0 0
8:53 pm 20:53 Clear 73 22.8 4 -15.6 6 6 NW 20 31 29.73 1007 10 16.0934 0 0
9:53 pm 21:53 Clear 72 22.2 9 -12.8 8 8 NW 21 33 29.76 1008 10 16.0934 0 0
10:53 pm 22:53 Clear 70 21.1 14 -10 11 11 NNW 23 37 29.79 1009 10 16.0934 0 0
11:53 pm 23:53 Clear 69 20.6 15 -9.4 12 12 WNW 14 22 29.83 1010 10 16.0934 0 0

Powered by AerisWeather